Wind_Speed
25 25 28 27 29 31 30 30 29 32 35 30 30 33 35 37 35 29 27 29 33 34 38 38 39 36 36 36 37 39 41 41 44 48 42 40 44 43 37 47 47 45 41
36 34 30 28 28 26 26 26 26 29 31 30 36 29 20 29 25 26 25 30 34 36 36 35 36 36 37 36 38 41 44 43 42 47 49 47 39 43 41 42 48 44 42
38 36 32 28 24 24 24 25 28 29 35 43 38 16 25 26 26 24 27 33 34 33 33 34 34 34 36 37 40 43 44 44 46 45 48 43 44 46 39 44 40 39 33
36 34 32 31 30 27 27 29 28 32 29 44 43 34 26 35 32 26 31 32 34 32 33 33 34 35 37 39 42 44 46 47 47 45 46 47 49 46 36 32 34 31 32
30 30 33 31 30 28 29 30 31 30 32 22 29 21 23 29 30 30 32 31 32 33 34 34 36 39 42 43 44 46 47 48 49 50 48 48 42 33 32 30 31 36 30
29 29 31 31 30 30 31 32 32 29 33 32 27 27 30 30 34 30 30 32 34 34 35 37 39 43 46 49 52 53 53 49 48 43 43 40 38 34 36 37 38 40 40
31 30 31 32 32 33 31 30 28 30 29 28 27 30 33 33 34 31 32 34 35 35 37 40 42 44 46 49 50 51 49 47 46 44 41 37 34 34 36 40 38 34 33
32 33 33 35 34 31 30 26 27 28 31 32 31 34 34 33 32 31 33 35 37 38 41 42 44 46 48 50 51 52 43 42 43 45 42 36 33 32 30 31 33 36 36
32 35 34 32 29 26 26 24 29 30 30 33 32 34 34 29 34 34 33 36 39 40 41 42 45 48 49 50 51 51 51 45 42 43 40 34 33 32 30 31 33 34 33
26 27 26 25 26 27 27 28 27 32 34 34 33 32 31 31 35 35 35 38 40 42 43 44 47 49 50 50 50 49 48 45 34 37 35 34 30 28 27 28 29 28 29
24 24 26 27 27 28 27 31 32 32 32 32 30 30 32 33 35 37 37 38 41 43 44 46 48 50 51 51 48 46 44 40 36 38 34 29 27 29 28 27 26 28 27
26 27 27 28 25 29 31 31 31 32 32 31 30 31 33 34 37 40 39 40 41 44 45 46 48 49 49 47 44 40 36 33 31 31 32 32 29 29 27 30 35 31 30
26 26 27 26 28 30 31 31 32 32 30 32 33 34 35 36 39 41 40 42 43 44 46 47 48 47 45 42 36 32 29 25 29 31 32 28 26 25 27 34 31 28 29
26 26 27 29 30 31 31 31 29 29 31 33 35 36 37 38 41 42 42 43 43 44 46 46 46 43 38 30 28 27 24 23 24 24 21 20 21 23 25 25 26 27 29
27 28 30 31 30 31 30 28 30 30 32 34 36 38 40 41 42 44 44 45 45 45 46 46 45 41 37 31 26 24 22 20 19 19 19 18 20 20 21 23 25 25 27
30 31 31 31 30 28 28 28 31 34 34 35 37 39 42 43 44 44 44 45 45 45 45 45 43 39 36 32 29 26 20 21 22 24 24 24 24 21 22 21 23 23 24
33 33 31 27 26 26 28 31 35 35 35 37 39 41 42 44 45 45 45 45 45 45 44 44 42 38 35 32 29 29 28 25 15 25 24 24 23 23 22 22 23 23 24
32 29 24 23 25 28 30 32 34 36 39 42 44 42 42 42 44 45 45 45 45 43 43 41 40 37 33 31 31 32 31 29 29 27 23 21 23 25 25 22 23 22 23
26 23 24 24 25 29 32 34 37 38 39 40 42 44 46 44 45 45 45 44 44 43 41 39 37 34 32 30 30 31 29 28 27 25 26 24 23 21 21 21 21 22 21
25 25 25 25 28 31 33 36 38 40 41 42 43 44 45 45 45 45 45 45 43 41 39 37 34 31 29 29 28 28 29 28 27 27 25 22 20 21 22 20 20 20 21
26 25 26 28 30 33 36 39 41 43 43 44 45 46 45 46 46 45 45 44 42 40 38 35 33 30 28 28 27 26 25 26 31 27 22 25 22 22 23 21 19 18 18
25 26 28 30 34 36 39 42 43 44 45 45 46 46 47 46 45 44 43 42 40 37 35 34 32 31 29 28 27 26 24 24 26 31 28 22 20 16 15 18 19 17 16
29 30 32 34 37 40 42 43 44 45 46 46 47 47 46 46 44 43 41 39 37 35 33 32 31 30 30 29 28 27 25 23 23 26 28 28 22 20 18 18 19 18 16
32 34 36 39 41 42 44 45 46 47 47 47 47 46 45 44 42 40 39 37 35 33 32 31 30 30 29 29 28 27 26 24 23 22 25 27 27 21 17 13 18 19 16
37 39 42 43 44 45 46 47 47 47 47 47 46 44 43 41 39 37 36 35 34 32 30 29 30 30 29 29 27 26 25 24 22 21 21 25 27 26 21 17 12 16 19
42 44 45 46 46 47 47 47 47 47 46 44 43 41 40 38 36 35 34 33 31 29 28 28 28 29 28 28 26 25 24 23 22 21 20 21 26 29 27 23 18 16 18
Wind_Direction
256 252 246 251 259 264 268 269 268 263 255 257 260 264 260 270 267 273 291 290 297 305 306 308 304 300 298 300 301 299 299 300 300 304 301 299 295 296 283 289 292 292 295
252 255 248 252 261 265 265 265 263 264 259 263 258 253 287 267 274 297 293 294 299 302 303 302 300 300 302 301 300 301 301 300 297 300 303 302 295 289 290 282 285 289 290
246 250 249 254 255 260 264 275 291 285 261 257 242 304 252 261 289 297 283 296 298 299 302 299 298 298 299 302 302 300 300 298 297 294 297 290 286 293 283 275 287 289 297
250 250 248 252 259 266 277 282 279 284 282 262 258 286 287 263 301 299 297 297 299 299 297 298 298 299 301 301 300 300 300 298 295 290 289 284 292 298 289 287 288 287 285
252 254 248 257 259 264 272 273 279 274 268 262 293 284 287 294 299 301 298 298 297 296 300 302 304 305 304 303 301 300 296 294 292 291 290 288 301 292 289 280 274 279 276
254 255 256 264 268 269 271 275 277 269 265 280 290 281 290 293 298 300 300 296 296 301 305 305 306 306 307 307 307 305 303 301 295 291 291 290 290 284 282 282 276 274 284
256 254 261 265 264 266 271 272 265 269 283 288 285 290 299 302 300 297 294 296 300 304 306 307 307 307 308 307 305 303 299 295 293 292 293 292 287 280 276 276 281 283 284
259 263 266 266 267 268 269 264 278 282 288 283 286 294 297 296 295 294 297 302 304 307 307 307 309 311 311 307 303 299 295 289 287 289 290 291 288 281 280 283 281 287 289
260 264 264 263 263 263 273 277 274 277 278 285 289 295 296 295 294 296 301 302 304 306 306 308 310 310 309 306 301 298 295 290 278 282 289 286 283 281 283 283 286 290 291
266 264 264 263 269 272 274 276 271 282 286 288 292 293 292 292 294 300 302 302 304 305 307 311 311 311 310 308 305 301 296 287 280 275 285 286 280 278 283 286 289 293 296
267 265 267 268 274 278 277 276 282 284 286 288 289 288 291 295 297 299 302 304 303 305 308 310 312 313 313 311 308 304 297 289 279 273 271 275 273 276 287 291 294 292 300
266 269 270 273 273 270 277 280 283 284 287 287 288 291 294 296 298 299 304 303 303 305 308 311 314 315 314 312 309 306 297 287 276 276 279 268 265 269 285 294 300 296 296
265 270 272 271 273 276 279 281 283 284 285 289 292 294 295 298 299 303 304 304 305 307 310 314 316 316 315 313 310 307 299 284 273 277 280 268 265 271 279 284 287 288 293
268 273 274 275 276 276 278 282 281 284 289 292 294 296 298 301 301 304 303 304 305 308 311 314 317 317 316 309 304 304 296 288 279 281 275 265 267 273 276 279 277 289 290
270 276 277 275 275 277 279 281 283 289 291 293 296 298 301 302 303 303 305 307 308 311 313 316 318 316 312 299 293 297 293 289 280 275 272 271 269 271 280 277 279 287 284
274 281 275 271 274 276 280 283 288 292 293 295 298 300 301 303 303 305 307 309 311 313 314 315 315 312 307 298 283 278 283 281 278 272 274 274 273 273 282 282 285 290 287
266 263 262 267 273 280 285 289 292 293 295 298 300 302 303 304 305 307 308 309 310 311 311 311 311 310 305 296 280 271 267 263 270 287 283 275 271 274 273 278 283 292 290
254 257 263 270 277 284 288 292 295 298 301 303 304 304 304 306 305 307 308 308 309 309 309 309 308 307 303 297 286 272 270 268 264 262 270 273 271 267 276 275 281 288 287
257 263 271 277 285 288 292 296 297 299 300 302 303 304 305 307 306 307 307 307 308 308 308 307 305 304 301 299 295 282 274 267 263 255 257 266 267 268 267 273 277 285 286
275 273 276 280 285 293 298 297 299 301 302 303 303 303 305 306 306 306 306 307 307 308 307 305 302 301 301 299 300 297 275 264 259 259 254 257 258 260 259 261 270 282 283
278 281 287 292 298 299 299 301 302 302 302 303 304 304 306 306 306 306 306 306 307 306 304 302 300 299 298 297 298 299 294 275 260 258 251 251 266 262 256 257 260 277 275
289 291 293 297 298 300 301 302 302 302 302 303 304 305 306 305 305 305 305 305 305 303 301 299 297 297 296 294 294 294 294 288 273 258 255 250 255 254 268 244 250 265 275
291 294 296 297 299 301 301 301 301 301 302 303 304 304 304 304 304 304 303 303 302 301 299 297 296 296 295 294 292 290 288 287 282 265 253 248 246 243 251 256 240 249 264
294 295 297 299 300 300 300 301 301 302 302 303 303 303 303 303 303 302 302 301 300 299 298 297 297 297 295 295 292 286 283 281 281 275 258 248 239 237 241 247 248 239 250
298 298 299 299 299 300 300 300 301 302 302 302 302 302 302 302 302 301 300 299 299 298 297 297 297 297 296 295 292 288 280 276 274 276 263 250 239 231 234 240 252 248 243
298 299 300 300 300 301 301 301 302 302 302 302 302 302 302 301 300 300 299 299 298 298 298 298 299 299 298 296 293 287 281 272 267 269 266 252 239 233 233 233 242 254 248
Height
3094 3096 3097 3098 3097 3097 3097 3096 3095 3094 3092 3094 3093 3093 3091 3088 3087 3086 3084 3083 3080 3075 3073 3068 3065 3063 3060 3056 3052 3048 3044 3039 3032 3029 3027 3024 3017 3013 3009 3002 2996 2990 2986
3089 3089 3090 3092 3092 3092 3091 3090 3090 3088 3086 3085 3084 3082 3082 3081 3080 3078 3077 3076 3072 3068 3065 3061 3059 3054 3050 3048 3045 3040 3035 3030 3024 3018 3016 3012 3008 3003 2996 2991 2986 2982 2977
3080 3082 3085 3086 3085 3085 3084 3085 3084 3083 3081 3077 3074 3073 3073 3072 3072 3070 3069 3067 3064 3060 3056 3054 3051 3047 3044 3040 3036 3031 3026 3021 3015 3009 3003 3001 2997 2991 2986 2982 2976 2972 2969
3075 3078 3079 3078 3078 3079 3078 3076 3076 3075 3073 3071 3068 3068 3069 3066 3065 3063 3061 3058 3055 3051 3050 3046 3043 3039 3035 3032 3027 3022 3016 3009 3004 2999 2993 2988 2984 2980 2975 2972 2969 2966 2963
3072 3073 3072 3073 3073 3072 3071 3070 3070 3068 3066 3065 3065 3062 3062 3061 3057 3056 3053 3049 3046 3044 3041 3037 3032 3028 3024 3021 3017 3012 3006 3000 2993 2987 2982 2975 2972 2970 2967 2964 2961 2958 2955
3065 3066 3066 3067 3066 3065 3064 3064 3063 3062 3061 3058 3057 3056 3055 3053 3050 3046 3042 3040 3038 3035 3031 3027 3023 3018 3012 3006 3000 2995 2990 2985 2980 2975 2970 2966 2963 2961 2959 2956 2953 2950 2946
3060 3060 3060 3060 3059 3059 3058 3057 3056 3055 3053 3052 3050 3049 3046 3043 3041 3038 3035 3032 3029 3026 3021 3017 3013 3008 3002 2996 2989 2983 2976 2972 2967 2963 2958 2957 2954 2952 2949 2946 2943 2940 2937
3053 3053 3053 3053 3052 3052 3050 3049 3048 3047 3046 3044 3043 3041 3038 3035 3032 3029 3025 3022 3018 3015 3010 3006 3001 2995 2991 2983 2976 2970 2967 2963 2957 2952 2949 2947 2944 2942 2939 2938 2934 2931 2928
3046 3045 3045 3045 3045 3044 3043 3043 3041 3041 3039 3037 3035 3032 3028 3026 3021 3020 3018 3013 3009 3005 3000 2996 2990 2984 2979 2972 2964 2957 2952 2949 2947 2942 2940 2937 2934 2932 2931 2929 2926 2922 2919
3039 3039 3039 3039 3039 3038 3037 3036 3035 3033 3031 3028 3026 3022 3020 3017 3012 3010 3007 3003 2999 2994 2990 2984 2978 2972 2965 2959 2950 2943 2936 2935 2934 2932 2929 2927 2925 2923 2923 2921 2919 2915 2912
3033 3033 3032 3032 3031 3030 3029 3028 3026 3023 3021 3019 3018 3015 3012 3008 3004 3000 2998 2993 2987 2982 2978 2973 2967 2959 2952 2944 2937 2930 2925 2922 2920 2920 2919 2918 2916 2914 2913 2912 2911 2908 2906
3027 3027 3026 3025 3024 3023 3021 3019 3017 3014 3012 3010 3009 3006 3002 2999 2994 2990 2988 2983 2977 2971 2966 2961 2955 2948 2940 2932 2924 2919 2913 2910 2910 2910 2910 2909 2909 2908 2907 2904 2901 2899 2898
3021 3019 3018 3017 3015 3014 3012 3010 3008 3006 3004 3001 2999 2996 2993 2990 2985 2980 2977 2971 2966 2960 2954 2948 2941 2934 2927 2920 2914 2909 2904 2901 2902 2901 2900 2900 2901 2900 2899 2898 2895 2893 2891
3012 3011 3010 3009 3007 3005 3003 3002 2999 2998 2996 2992 2989 2987 2983 2980 2974 2970 2966 2960 2955 2949 2942 2936 2928 2921 2915 2910 2907 2902 2899 2896 2895 2893 2893 2893 2893 2893 2892 2891 2888 2886 2884
3005 3003 3002 3000 2998 2997 2994 2993 2990 2989 2987 2983 2980 2977 2973 2968 2964 2958 2953 2947 2941 2935 2928 2922 2916 2910 2905 2902 2899 2896 2892 2890 2889 2888 2887 2887 2887 2886 2885 2884 2882 2880 2878
2997 2996 2994 2992 2990 2988 2986 2984 2982 2979 2977 2974 2971 2967 2962 2957 2952 2947 2941 2934 2928 2922 2916 2910 2905 2900 2896 2892 2890 2889 2886 2885 2884 2882 2881 2880 2880 2879 2878 2877 2875 2873 2871
2987 2984 2982 2982 2982 2981 2979 2975 2971 2970 2968 2964 2960 2955 2950 2945 2939 2934 2929 2923 2917 2911 2905 2900 2895 2890 2886 2882 2880 2879 2878 2878 2874 2873 2873 2872 2872 2871 2871 2870 2869 2867 2865
2975 2974 2973 2974 2974 2973 2971 2968 2964 2960 2955 2950 2946 2944 2940 2935 2928 2923 2918 2911 2906 2900 2895 2889 2884 2879 2875 2872 2869 2867 2867 2867 2866 2866 2865 2864 2864 2864 2864 2863 2862 2861 2859
2966 2966 2966 2966 2965 2964 2961 2958 2955 2951 2947 2942 2937 2931 2926 2923 2916 2911 2906 2900 2895 2889 2883 2878 2874 2870 2866 2861 2859 2857 2856 2856 2856 2856 2857 2857 2857 2857 2857 2856 2856 2855 2854
2961 2960 2958 2957 2955 2953 2951 2948 2944 2940 2936 2931 2926 2921 2916 2911 2905 2899 2894 2888 2883 2878 2873 2868 2864 2860 2857 2854 2850 2847 2846 2846 2846 2847 2848 2848 2849 2849 2849 2850 2850 2849 2848
2953 2952 2950 2948 2946 2944 2941 2937 2933 2928 2924 2919 2914 2908 2904 2898 2892 2887 2881 2876 2871 2866 2862 2858 2855 2852 2848 2846 2843 2840 2837 2836 2836 2837 2838 2840 2841 2841 2842 2843 2844 2844 2843
2945 2944 2942 2939 2937 2934 2930 2926 2922 2917 2912 2907 2901 2896 2890 2885 2880 2875 2869 2864 2860 2856 2852 2848 2845 2842 2839 2837 2834 2832 2830 2828 2826 2827 2830 2831 2833 2834 2835 2836 2837 2838 2838
2938 2935 2933 2930 2927 2923 2918 2914 2910 2905 2900 2894 2889 2883 2878 2873 2868 2863 2858 2853 2849 2846 2842 2839 2836 2833 2830 2828 2825 2823 2821 2820 2818 2818 2820 2823 2825 2827 2829 2830 2831 2833 2834
2929 2927 2923 2919 2915 2911 2907 2902 2897 2892 2887 2881 2876 2870 2865 2860 2856 2851 2847 2843 2839 2835 2832 2829 2826 2823 2820 2818 2816 2814 2813 2812 2810 2810 2810 2813 2817 2819 2822 2823 2825 2828 2829
2920 2917 2913 2908 2904 2899 2894 2889 2884 2879 2874 2868 2863 2858 2853 2849 2845 2841 2837 2833 2829 2826 2823 2820 2817 2814 2811 2809 2806 2804 2803 2803 2803 2802 2802 2804 2808 2811 2815 2818 2820 2822 2824
2909 2905 2900 2896 2891 2886 2881 2876 2871 2866 2861 2856 2851 2846 2842 2838 2834 2830 2827 2823 2820 2817 2814 2811 2808 2805 2802 2799 2797 2795 2794 2794 2794 2795 2795 2796 2799 2803 2807 2811 2815 2816 2818